Location: Godiavel Galaoual
(15.2485°N, 12.6604°W)
Time: 23:31:34
(UTC+00:00)

BEESAT - Pass Details

Date: 03 August 2021
Orbit: 699 x 708 km, 98.6° (Epoch: 24 September)

Event Time Altitude Azimuth Distance (km) Brightness Sun altitude
Rises 21:11:24 0° 339° (NNW) 3,095 ? -25.6°
Reaches altitude 10° 21:15:18 10° 306° (NW) 2,174 ? -26.5°
Maximum altitude 21:16:47 11° 288° (WNW) 2,080 ? -26.8°
Drops below altitude 10° 21:18:16 10° 270° (W) 2,173 ? -27.1°
Sets 21:22:12 0° 237° (WSW) 3,088 ? -27.9°
